Showing default

HULIANWANG DIGUI-34, 64287

Orbit data source: Space-Track

HULIANWANG DIGUI-34, 64287 is a payload satellite owned by Zhongguo Xingwang (CN) in LEO that was launched on Thu, 05 Jun 2025 UTC via a CHANG ZHENG 6A launch vehicle from the Taiyaun Space Center, China (TSC). Payload-class satellites include a variety of spacecraft equipped with specific instruments for various scientific and technological missions. These include communications satellites like Starlink; space stations such as the ISS; scientific satellites like the Hubble; Earth observation satellites from companies like Planet Labs, Umbra, and HawkEye 360; GPS; miniature CubeSats for education and research; and military/defense satellites.

Loading next visibility...
Identifier
64287, 2025-121E
Orbit
LEO
Last TLE update
7 hours ago
Origin
Flag of CNZXW (CN / PRC)
Manufacturer
CAST?
Mission
Operational spacecraft
Bus & Motor
Unknown
Mass
~800 kg wet, ~800 kg dry
Launch date (UTC)
2025-06-05 (2 weeks ago)
Launch vehicle
CHANG ZHENG 6A
Launch site
Taiyaun Space Center, China (TSC)
Object type
Payload
Rocket body
Debris
Shape & HBR
Unknown
Radar Cross Section
Large (>1 m²)

Expand to show TLE details & history

TLE from 7 hours ago
0 HULIANWANG DIGUI-34
1 64287U 25121E   25169.92065060 -.00000114  00000-0 -15129-3 0  9998
2 64287  86.4994 137.8773 0008293 167.5546 192.5820 13.69191356  1799
Epoch: 2025-06-18T22:05Z
TLE epoch observation values (Epoch: 2025-06-18T22:05:44.211Z)
Latitude
-0.00003°
Longitude
-100.95268°
Altitude
1,011.41 km
Speed
7.343 km/s
True Right ascension
09h 11m 30s
True Declination
0° 00' 00"
Sunlit
Object was in daylight at epoch
Visualization orbit readout
Latitude
86.26163°
Longitude
10.28178°
Altitude
1,014.736 km
Speed
7.352 km/s
Apparent Right ascension
04h 22m 18s
Apparent Declination
36° 38' 36"
Sunlit
Object is in daylight
Visualization observer readout
Local Sidereal Time
16:23:42
Azimuth
0.288° NNE
Elevation
-13.44°
Doppler factor
1
Orbital elements
Apogee altitude
1,005.649 km
Perigee altitude
993.412 km
Semi-major axis
7,377.668 km
Eccentricity
0.00083
Inclination
86.4994°
RAAN
137.8773°
Arg. of periapsis
167.5546°
True anomaly
Unknown
Mean anomaly
192.582°
Eccentric anomaly
Unknown
Mean motion
3.42503 °/min
Orbital period
105.11 mins
BSTAR
-0.00015129
Loading maneuver chart data...
Loading SW <> Apogee altitude chart data...
Loading historical data...
Loading historical data...
Loading historical data...
Loading historical data...
Loading historical data...
Loading historical data...
Loading historical data...

HULIANWANG DIGUI-34 Visibility forecast

Observer location: undefined°, undefined°

Span
Click to sort rows by Start time (UTC) header in descending order
Start Az.
Max El. time (UTC)
Max El. Az.
Max El.
End time (UTC)
End Az.
11 mins2025-06-19 09:12:22.087Z16.136° NNE2025-06-19 09:17:22.087Z72.291° E30.346°2025-06-19 09:23:22.087Z145.505° SSE
9 mins2025-06-19 10:59:22.087Z328.049° NNW2025-06-19 11:03:22.087Z272.664° WNW28.284°2025-06-19 11:08:22.087Z217.69° SW
6 mins2025-06-19 21:03:22.087Z106.687° ESE2025-06-19 21:06:22.087Z71.981° E18.487°2025-06-19 21:09:22.087Z40.635° NE
10 mins2025-06-19 22:46:22.087Z199.787° SSW2025-06-19 22:50:22.087Z257.367° W40.842°2025-06-19 22:56:22.087Z353.852° N
|